RH
24 26 33 54 62 65 64 68 78 82 91 94 99 94 87 85 80 76 80 77 73 74 77 75 72 73 73 71 71 72 73 74 76 72 70 68 67 68 67 67 65 61 66
24 25 30 39 61 67 70 70 65 75 92 98 99 96 93 95 92 88 90 90 86 82 79 79 78 75 76 77 75 74 75 76 72 73 67 73 63 64 64 62 62 63 65
24 25 29 34 59 67 71 71 61 62 79 93 86 94 91 91 99 98 96 78 82 89 91 88 84 82 81 81 82 81 80 76 74 76 74 81 79 65 62 63 64 64 64
25 25 30 35 37 42 69 72 71 79 73 83 92 90 79 68 65 59 56 78 77 80 97 99 95 87 89 90 88 86 84 87 83 84 84 79 78 80 79 72 71 69 68
28 28 30 38 40 38 45 49 54 72 81 72 70 80 61 61 61 56 80 84 84 68 64 68 96 94 89 92 91 92 92 91 88 84 88 90 89 95 91 92 79 83 79
29 27 33 34 38 43 48 50 51 64 79 91 58 57 53 54 65 74 68 58 54 93 94 100 83 99 96 91 91 93 94 92 88 88 88 91 95 96 94 93 86 83 89
28 29 30 36 36 45 49 52 46 48 58 70 74 84 78 58 57 63 69 57 70 82 88 90 99 100 98 98 98 98 95 94 92 92 91 91 91 84 87 83 82 88 86
25 26 27 32 36 44 43 42 48 52 54 58 62 67 77 84 81 70 68 66 63 64 77 85 90 96 99 99 99 100 98 97 97 98 95 93 92 89 90 89 88 95 89
26 26 26 26 30 50 49 43 47 53 54 56 58 60 61 59 55 56 48 54 60 68 72 76 83 90 93 99 99 96 96 99 99 98 99 96 96 98 98 96 97 97 92
25 26 27 28 33 40 48 52 49 54 58 61 60 62 66 65 69 71 75 75 74 75 83 86 87 89 89 84 100 99 100 100 100 99 100 100 99 99 98 96 96 98 96
27 26 26 29 35 44 52 54 55 63 66 64 64 65 66 67 68 69 73 75 77 80 85 87 89 92 95 99 98 98 98 99 100 100 99 99 99 94 94 94 92 91 93
34 32 30 39 46 54 56 57 62 62 63 64 62 65 67 66 65 67 68 69 72 74 76 81 86 88 91 97 98 100 100 100 100 99 97 95 96 95 94 93 93 96 98
45 42 41 45 50 53 55 58 60 62 65 64 64 65 66 65 64 66 69 70 71 73 76 79 82 84 89 89 91 94 94 93 94 95 96 96 96 96 94 98 98 95 92
48 45 45 45 48 51 54 56 58 62 65 64 64 65 67 67 68 71 72 73 74 75 78 80 83 85 85 87 87 88 89 91 93 94 94 94 96 97 96 95 94 90 88
49 48 46 45 48 53 56 56 59 62 64 65 67 69 73 75 76 77 78 78 79 80 83 84 87 91 93 93 92 91 91 92 93 94 94 95 94 96 93 90 86 87 84
50 48 47 45 48 52 54 57 61 63 66 65 67 74 76 78 81 82 83 85 86 86 86 89 91 96 98 99 99 98 99 99 100 99 99 95 86 84 82 86 82 81 85
46 49 48 47 47 49 52 57 60 63 64 65 68 74 75 79 82 85 87 89 91 93 96 98 99 99 99 99 99 99 99 99 99 99 99 99 98 96 94 90 67 62 71
42 45 46 48 49 50 52 55 58 62 66 66 69 74 76 79 85 89 94 100 100 100 99 96 97 99 99 99 99 99 100 100 100 100 97 88 87 82 70 63 61 58 57
38 40 45 48 52 52 53 55 60 64 71 68 72 75 78 81 86 94 99 100 98 98 99 99 100 99 99 98 99 99 99 96 90 82 74 69 68 51 69 67 67 76 75
44 43 46 50 53 54 55 57 61 64 69 72 72 77 84 84 91 98 100 99 100 100 99 99 100 99 99 99 100 92 79 71 70 73 74 72 76 45 49 63 61 59 67
56 58 55 56 57 58 59 60 62 65 70 77 80 82 90 93 97 99 97 98 99 100 100 100 99 98 97 98 92 68 56 56 61 66 69 65 80 87 49 50 48 51 58
60 66 61 68 69 70 68 68 70 75 79 84 87 91 96 99 100 98 100 100 100 100 99 100 91 76 71 69 74 55 56 58 61 62 66 74 80 75 81 45 63 50 72
60 63 63 67 71 74 72 72 79 86 86 87 90 94 98 99 100 100 100 100 100 100 98 88 78 71 73 74 78 81 64 61 53 52 55 63 71 71 74 82 75 94 73
58 62 62 62 66 72 73 68 76 79 80 81 83 89 96 100 100 100 100 100 100 99 96 86 74 67 70 73 81 80 75 71 51 60 62 64 69 80 65 66 82 87 79
63 64 62 60 60 67 69 70 75 78 78 76 78 89 97 100 100 99 99 99 99 99 98 94 76 63 64 65 70 79 82 79 72 64 74 63 58 62 62 62 76 80 70
66 66 68 72 73 75 76 75 76 78 80 80 80 92 99 100 100 100 99 100 100 100 99 99 80 60 60 56 62 78 78 79 79 70 61 55 50 51 58 56 60 65 67
Wind_Speed
17 21 14 17 20 17 16 17 19 17 17 19 17 18 19 18 14 13 12 10 11 12 12 12 11 12 12 12 11 10 10 10 8 7 10 12 13 13 13 11 10 8 6
15 20 16 14 20 18 17 16 17 17 18 18 18 14 18 15 13 14 12 13 12 14 14 15 13 12 12 13 13 13 11 11 10 6 6 3 6 12 12 8 6 5 4
14 16 15 12 15 16 15 17 16 17 18 16 17 12 15 13 13 16 13 16 19 18 17 15 15 14 15 15 16 16 16 13 12 14 7 1 3 3 4 4 4 3 3
13 14 16 13 11 11 11 14 17 13 15 17 14 18 16 12 12 9 11 9 10 16 21 19 20 20 19 19 17 17 18 17 14 12 16 16 6 2 2 5 5 4 3
14 18 16 16 13 11 10 12 16 17 16 16 14 11 10 9 9 6 8 9 8 14 13 18 19 22 21 19 16 17 18 18 17 16 8 12 12 10 6 3 5 3 5
15 16 18 14 12 11 12 9 13 17 13 12 16 11 15 9 6 6 13 17 21 10 13 14 17 20 19 20 20 19 18 19 18 17 15 16 6 10 6 4 7 8 4
16 15 15 14 14 15 13 11 10 11 15 18 17 15 17 13 15 15 21 18 15 18 15 14 16 17 19 19 17 18 19 21 20 19 19 19 16 11 10 9 6 6 4
15 16 16 19 17 14 17 14 13 12 11 10 10 10 12 12 16 16 14 12 9 9 10 14 14 13 13 17 18 20 20 19 18 18 19 19 15 15 13 7 6 1 5
10 13 13 17 16 14 13 15 15 10 10 10 8 5 7 9 9 7 9 12 11 12 13 12 11 11 12 11 13 16 17 18 19 19 19 17 14 12 12 11 10 5 3
9 9 12 16 10 13 12 11 17 11 8 8 8 7 4 5 5 3 4 5 5 6 7 6 7 8 9 11 11 14 15 16 16 16 16 15 13 11 8 9 10 10 5
8 8 7 12 12 11 11 11 12 18 13 11 8 7 7 5 4 4 3 3 3 3 3 5 4 4 4 5 8 10 13 13 12 11 11 9 9 7 5 7 8 9 9
5 6 9 11 12 12 13 14 14 14 13 12 10 8 7 7 5 3 3 2 1 4 4 5 4 6 7 4 5 6 9 11 11 11 10 10 7 5 5 6 8 7 7
6 7 8 11 13 15 15 14 14 13 12 11 10 10 8 6 5 4 1 0 1 2 4 4 4 5 6 5 5 4 6 7 7 8 8 7 6 7 8 9 8 8 7
7 8 9 10 14 15 15 14 13 12 11 11 10 9 7 6 5 4 2 1 0 1 1 2 3 4 4 5 5 5 6 6 7 8 8 7 8 8 9 9 8 7 7
8 9 9 10 14 14 13 13 12 12 12 11 9 8 6 5 4 3 1 1 0 1 2 0 1 1 2 3 4 6 7 8 8 7 7 8 9 11 10 7 8 9 7
8 9 9 10 12 12 12 11 11 11 10 9 8 6 6 5 4 3 2 1 0 1 1 1 1 0 2 2 4 6 7 8 10 11 9 10 10 9 9 10 10 9 7
9 10 10 11 12 12 12 12 12 11 9 8 8 8 7 6 5 4 3 2 2 1 1 2 2 1 2 2 6 8 11 12 13 14 15 12 12 10 9 10 8 7 8
9 10 11 12 12 11 12 12 13 13 12 10 9 8 8 7 6 5 5 5 4 4 6 4 4 4 3 6 7 8 9 11 11 12 10 9 11 9 7 6 6 6 6
7 11 13 12 12 13 13 13 13 13 12 11 11 10 9 8 8 7 7 6 7 7 6 4 4 6 7 7 9 11 11 9 9 9 9 8 7 8 8 7 8 6 5
2 6 9 10 12 13 14 15 15 14 14 12 11 10 10 9 9 8 8 9 7 7 7 8 8 7 8 9 10 10 9 10 8 8 8 9 6 8 10 6 7 8 6
3 3 3 7 7 10 13 14 14 14 12 11 11 10 10 10 9 11 10 9 10 9 11 10 8 7 6 9 10 8 8 8 9 9 7 7 7 6 7 8 7 7 8
6 5 4 4 3 6 10 11 11 12 12 11 11 11 11 10 10 11 11 11 12 12 13 11 9 9 9 9 10 9 8 7 10 9 9 8 8 6 5 7 7 9 9
6 5 4 4 3 4 6 8 8 10 11 11 11 11 10 10 10 11 12 14 15 16 15 12 11 10 10 8 8 8 9 10 8 9 9 8 8 6 6 7 7 9 8
5 4 3 3 2 3 4 4 6 8 9 10 10 10 10 11 11 12 14 16 18 17 16 13 13 11 11 11 10 11 11 9 10 9 9 7 7 7 7 8 10 11 8
4 4 3 1 1 3 3 4 5 7 9 9 9 10 11 12 12 15 17 19 20 22 22 17 14 13 13 16 15 15 14 12 10 10 9 9 10 11 11 10 11 11 11
4 3 3 3 3 4 5 6 8 10 10 10 10 10 10 11 14 15 16 16 17 19 20 17 15 15 13 12 15 15 13 12 11 12 11 12 14 14 14 14 13 14 12
Wind_Direction
223 195 186 171 161 177 189 196 189 196 203 208 205 211 214 207 205 207 209 219 216 214 214 221 219 215 218 221 222 222 226 228 235 256 262 257 254 250 252 253 258 258 252
219 198 178 182 162 172 185 189 198 190 187 196 196 195 202 211 216 213 212 218 223 222 221 222 224 224 224 229 228 225 224 232 226 227 259 281 254 225 228 238 249 242 241
218 205 165 176 161 166 182 186 197 190 191 191 193 196 180 193 204 219 236 243 232 224 226 225 228 230 225 226 226 224 221 228 227 222 230 190 231 43 195 219 220 231 215
219 216 171 175 166 164 178 175 167 197 201 189 192 193 195 193 222 209 252 248 268 254 242 241 242 233 235 231 230 224 224 222 230 218 229 240 271 251 268 207 221 245 232
221 212 186 177 169 177 184 195 174 181 207 199 207 218 209 203 236 248 256 239 248 273 272 264 250 244 233 234 232 231 222 224 227 226 205 222 237 240 237 248 245 236 256
211 199 165 174 174 160 186 194 169 177 197 207 215 246 247 211 209 245 257 259 267 266 265 253 258 249 244 241 240 233 231 227 229 230 232 208 190 205 196 224 246 259 201
203 209 198 171 184 179 173 185 179 181 190 203 210 205 229 214 233 222 233 253 244 256 260 263 253 249 245 243 240 236 232 232 231 229 230 230 228 236 195 233 228 210 199
210 212 215 186 184 187 185 172 173 170 174 189 194 214 228 221 215 206 214 217 227 234 237 247 254 252 253 251 250 249 242 239 231 231 231 228 219 220 209 199 244 233 210
240 215 216 217 185 186 191 170 156 158 155 155 152 167 191 192 213 221 211 221 227 230 240 249 251 251 251 252 245 247 249 248 240 236 221 215 211 213 213 219 233 216 202
207 223 228 222 181 191 176 169 153 137 150 147 154 152 139 168 165 154 201 215 223 236 237 246 254 258 257 251 237 235 233 225 222 218 207 198 192 194 207 222 231 232 236
206 213 200 215 189 176 167 162 145 134 147 145 143 143 137 128 126 133 156 179 199 228 238 235 228 253 262 258 239 225 228 218 204 196 198 189 195 209 226 216 218 231 231
189 196 178 167 163 167 163 158 146 145 143 143 141 144 145 136 132 154 186 200 257 288 272 275 267 254 248 235 226 208 199 190 182 185 192 191 192 209 216 214 211 193 204
157 156 161 164 169 168 167 161 155 148 145 141 147 147 145 139 149 138 159 151 263 283 298 289 274 267 253 233 209 196 186 173 183 187 192 192 187 189 193 191 195 186 187
155 156 158 163 162 165 162 157 149 147 144 148 151 147 144 145 145 135 128 130 73 261 260 253 263 256 252 231 211 184 174 168 180 179 173 179 179 182 180 178 174 158 157
168 165 163 162 162 163 162 158 155 155 158 155 152 145 143 147 144 145 135 126 162 280 259 214 272 270 252 215 189 177 181 180 173 167 163 173 183 167 160 162 159 150 167
191 176 175 171 171 171 168 164 161 159 158 157 152 153 152 156 151 145 136 119 106 238 297 298 212 267 287 265 164 180 176 171 165 155 153 143 137 139 154 159 158 153 169
195 192 186 188 179 179 177 174 171 166 169 169 168 168 168 169 166 165 160 170 173 231 238 256 313 331 271 194 183 172 183 181 169 165 149 145 136 129 141 112 123 141 148
205 196 197 191 187 183 181 176 172 174 175 177 181 183 181 182 185 192 196 217 219 223 251 250 244 228 197 177 182 192 166 152 150 150 158 155 154 159 157 145 129 108 113
214 201 197 193 186 188 185 183 181 181 180 187 189 190 192 192 196 204 218 224 230 225 227 201 195 177 163 175 165 156 159 157 158 162 154 150 164 173 162 168 145 137 114
279 193 189 190 192 194 187 189 190 190 192 196 194 194 195 200 203 210 215 225 228 218 200 190 189 182 181 177 172 153 161 151 168 165 167 151 171 171 168 165 164 168 176
64 21 161 191 204 192 191 199 196 198 190 188 187 191 197 203 205 218 227 223 215 208 199 192 186 185 189 189 180 172 172 172 182 177 173 176 163 171 168 160 176 188 191
62 62 107 116 145 172 193 198 197 189 192 183 191 193 199 197 203 217 216 213 209 204 201 196 190 196 197 195 198 200 188 187 198 194 192 185 181 180 174 164 183 183 161
63 63 84 103 120 177 200 198 195 186 185 185 190 194 197 200 206 207 207 204 207 204 201 198 201 202 201 205 202 207 214 202 195 200 199 188 182 188 189 197 185 180 176
46 53 80 106 141 167 183 199 181 181 183 193 199 201 205 205 211 220 221 218 212 203 204 205 214 207 206 201 202 202 197 196 194 190 188 182 192 208 205 202 200 203 206
17 22 12 355 165 168 185 188 185 187 195 208 209 208 213 208 216 226 229 229 233 226 211 208 214 208 208 212 208 199 198 207 204 189 194 202 207 213 216 210 207 211 215
16 359 326 297 278 241 221 224 219 214 212 212 216 217 216 217 220 227 232 237 243 239 230 222 223 224 226 229 216 209 205 199 195 199 204 212 214 214 214 213 216 219 217